CW7536 Weather Reports


Display with metric or nautical units.
time (UTC)temp
F
wind
direction
speed
MPH
gust
MPH
rain 1hr
in
rain 24hr
in
rain mn
in
humidity
%
barometer
mb
20260831021543 73 145 0.0 0.0 0.00 0.00 0.00 1 1019.2
20260831020039 74 145 0.0 0.0 0.00 0.00 0.00 1 1019.5
20260831014538 74 144 0.0 0.0 0.00 0.00 0.00 1 1019.6
20260831013030 74 144 0.0 0.0 0.00 0.00 0.00 1 1019.3
20260831011525 75 144 0.0 0.0 0.00 0.00 0.00 1 1019.1
20260831010021 75 144 0.0 0.0 0.00 0.00 0.00 1 1018.8
20260831004518 75 144 0.0 0.0 0.00 0.00 0.00 1 1018.6
20260831003011 75 144 0.0 0.0 0.00 0.00 0.00 1 1018.5
20260831001507 75 144 0.0 0.0 0.00 0.00 0.00 1 1018.3
20260831000003 75 144 0.0 0.0 0.00 0.00 0.00 1 1018.1
20260830234605 76 144 0.0 0.0 0.00 0.00 0.00 1 1018.1
20260830233054 76 144 0.0 0.0 0.00 0.00 0.00 1 1018.0
20260830231550 76 144 0.0 0.0 0.00 0.00 0.00 1 1017.9
20260830230048 77 119 0.0 1.0 0.00 0.00 0.00 1 1017.9
20260830224552 77 207 0.0 0.0 0.00 0.00 0.00 1 1018.1
20260830223046 77 207 0.0 2.0 0.00 0.00 0.00 1 1017.9
20260830221545 77 246 0.0 4.0 0.00 0.00 0.00 1 1017.9
20260830220037 78 232 0.0 2.0 0.00 0.00 0.00 1 1018.1
20260830214532 78 188 0.0 2.0 0.00 0.00 0.00 1 1018.3
20260830213028 78 240 0.0 2.0 0.00 0.00 0.00 1 1018.0
20260830211523 78 286 0.0 4.0 0.00 0.00 0.00 1 1017.9
20260830210022 78 261 0.0 5.0 0.00 0.00 0.00 1 1017.9
20260830204515 78 269 0.0 8.0 0.00 0.00 0.00 1 1018.1
20260830203027 78 260 2.0 5.0 0.00 0.00 0.00 1 1018.2
20260830201506 78 259 1.0 4.0 0.00 0.00 0.00 1 1018.4
20260830200002 78 162 1.0 2.0 0.00 0.00 0.00 1 1018.7
20260830194602 78 231 0.0 2.0 0.00 0.00 0.00 1 1018.8
20260830193053 77 240 2.0 7.0 0.00 0.00 0.00 1 1018.8
20260830191555 76 125 0.0 6.0 0.00 0.00 0.00 1 1019.0
20260830190044 76 215 0.0 4.0 0.00 0.00 0.00 1 1019.4
20260830184538 75 247 3.0 6.0 0.00 0.00 0.00 1 1019.7
20260830183035 75 280 2.0 7.0 0.00 0.00 0.00 1 1020.0
20260830181531 76 266 1.0 5.0 0.00 0.00 0.00 1 1020.1
20260830180026 75 264 0.0 4.0 0.00 0.00 0.00 1 1020.1
20260830174522 75 228 4.0 8.0 0.00 0.00 0.00 1 1020.4
20260830173017 75 108 2.0 7.0 0.00 0.00 0.00 1 1020.4
20260830171513 76 290 2.0 6.0 0.00 0.00 0.00 1 1020.5
20260830170008 76 266 3.0 8.0 0.00 0.00 0.00 1 1020.5
20260830164522 75 256 2.0 9.0 0.00 0.00 0.00 1 1020.6
20260830163006 74 145 1.0 8.0 0.00 0.00 0.00 1 1020.6
20260830161501 72 258 1.0 4.0 0.00 0.00 0.00 1 1021.0
20260830160057 72 250 1.0 4.0 0.00 0.00 0.00 1 1021.2
20260830154554 74 219 2.0 6.0 0.00 0.00 0.00 1 1021.4
20260830153048 75 253 0.0 4.0 0.00 0.00 0.00 2 1021.4
20260830151546 75 196 1.0 8.0 0.00 0.00 0.00 4 1021.4
20260830150041 76 243 1.0 3.0 0.00 0.00 0.00 1 1021.6
20260830144534 74 231 1.0 4.0 0.00 0.00 0.00 1 1021.8
20260830143030 74 232 1.0 6.0 0.00 0.00 0.00 4 1021.9
20260830141525 75 281 1.0 6.0 0.00 0.00 0.00 5 1021.7
20260830140022 74 242 2.0 6.0 0.00 0.00 0.00 6 1021.9
20260830134517 73 202 0.0 4.0 0.00 0.00 0.00 1 1022.0
20260830133012 72 145 0.0 4.0 0.00 0.00 0.00 1 1022.1
20260830131508 70 167 0.0 2.0 0.00 0.00 0.00 1 1022.3
20260830130004 67 256 0.0 1.0 0.00 0.00 0.00 1 1022.6
20260830124611 66 159 0.0 3.0 0.00 0.00 0.00 1 1022.6
20260830123057 65 188 0.0 1.0 0.00 0.00 0.00 1 1022.6
20260830121550 63 245 0.0 0.0 0.00 0.00 0.00 1 1022.8
20260830120049 62 245 0.0 1.0 0.00 0.00 0.00 1 1022.7
20260830114544 61 246 0.0 0.0 0.00 0.00 0.00 1 1022.8
20260830113037 61 246 0.0 0.0 0.00 0.00 0.00 1 1022.8
20260830111533 60 246 0.0 0.0 0.00 0.00 0.00 1 1022.7
20260830110030 60 246 0.0 0.0 0.00 0.00 0.00 1 1022.8
20260830104524 60 246 0.0 0.0 0.00 0.00 0.00 1 1022.7
20260830103020 60 246 0.0 0.0 0.00 0.00 0.00 1 1022.4
20260830101520 60 246 0.0 0.0 0.00 0.00 0.00 1 1022.6
20260830100011 60 246 0.0 0.0 0.00 0.00 0.00 1 1022.6
20260830094506 60 246 0.0 0.0 0.00 0.00 0.00 1 1022.6
20260830093001 60 246 0.0 0.0 0.00 0.00 0.00 1 1022.7
20260830091558 60 246 0.0 0.0 0.00 0.00 0.00 1 1022.7
20260830090059 60 246 0.0 0.0 0.00 0.00 0.00 1 1022.7
20260830084549 60 246 0.0 0.0 0.00 0.00 0.00 1 1022.7
20260830083104 60 246 0.0 0.0 0.00 0.00 0.00 1 1022.7
20260830081547 60 246 0.0 0.0 0.00 0.00 0.00 1 1022.8
20260830080047 60 246 0.0 0.0 0.00 0.00 0.00 1 1022.9
20260830074549 60 246 0.0 0.0 0.00 0.00 0.00 1 1023.0
20260830073045 60 246 0.0 0.0 0.00 0.00 0.00 1 1023.0
20260830071546 59 246 0.0 0.0 0.00 0.00 0.00 1 1023.1
20260830070048 59 246 0.0 0.0 0.00 0.00 0.00 1 1022.9
20260830064533 59 246 0.0 0.0 0.00 0.00 0.00 1 1023.0
20260830063030 60 246 0.0 0.0 0.00 0.00 0.00 1 1023.0
20260830061529 60 246 0.0 0.0 0.00 0.00 0.00 1 1023.0
20260830060021 60 246 0.0 0.0 0.00 0.00 0.00 1 1023.0
20260830054516 60 246 0.0 0.0 0.00 0.00 0.00 1 1023.0
20260830053009 60 246 0.0 0.0 0.00 0.00 0.00 1 1023.0
20260830051505 60 246 0.0 0.0 0.00 0.00 0.00 1 1022.8
20260830050001 61 246 0.0 0.0 0.00 0.00 0.00 1 1022.9
20260830044556 61 246 0.0 0.0 0.00 0.00 0.00 1 1022.9
20260830043052 61 246 0.0 0.0 0.00 0.00 0.00 1 1022.9
20260830041553 62 246 0.0 0.0 0.00 0.00 0.00 1 1022.8
20260830040047 62 246 0.0 1.0 0.00 0.00 0.00 1 1022.7
20260830034541 62 247 0.0 0.0 0.00 0.00 0.00 1 1022.7
20260830033040 62 247 0.0 1.0 0.00 0.00 0.00 1 1022.8
20260830031536 62 247 0.0 0.0 0.00 0.00 0.00 1 1022.8
20260830030042 62 247 0.0 0.0 0.00 0.00 0.00 1 1022.6
20260830024537 63 247 0.0 0.0 0.00 0.00 0.00 1 1022.6
20260830023020 63 247 0.0 0.0 0.00 0.00 0.00 1 1022.8